Weather History for KAAA - August, 2014

Change the Weather History Date:

Sunday, August 10, 2014

  Actual Average (KSPI) Record (KSPI)
Temperature  
Mean Temperature 74 °F 75 °F  
Max Temperature 82 °F 85 °F 100 °F (1938)
Min Temperature 67 °F 65 °F 51 °F (1972)
Degree Days  
Heating Degree Days 0 0  
Month to date heating degree days 0  
Since 1 June heating degree days 16  
Since 1 July heating degree days 1  
Cooling Degree Days 10 10  
Month to date cooling degree days 100  
Year to date cooling degree days 779  
Since 1 June cooling degree days 675  
Growing Degree Days 24 (Base 50)    
Moisture  
Dew Point 68 °F    
Average Humidity 81    
Maximum Humidity 93    
Minimum Humidity 67    
Precipitation  
Precipitation 0.03 in 0.10 in 1.91 in (1974)
Month to date precipitation 1.11  
Year to date precipitation 23.52  
Snow  
Snow 0.00 in 0.00 in 0.00 in ()
Month to date snowfall 0.0  
Since 1 June snowfall 0.0  
Since 1 July snowfall 0.0  
Snow Depth -    
Sea Level Pressure  
Sea Level Pressure 29.96 in    
Wind  
Wind Speed 4 mph (NNE)    
Max Wind Speed 10 mph    
Max Gust Speed -    
Visibility 9 miles    
Events Rain    
T = Trace of Precipitation, MM = Missing Value Source: NWS Daily Summary

Daily Weather History Graph

Daily Weather History Graph

Search for Another Location

Airport or City:

Trip Planner

Search our weather history database for the weather conditions in past years. The results will help you decide how hot, cold, wet, or windy it might be!

Date:

Astronomy

Aug. 10, 2014 Rise Set
Actual Time 6:03 AM CDT 8:00 PM CDT
Civil Twilight 5:34 AM CDT 8:30 PM CDT
Nautical Twilight 4:58 AM CDT 9:06 PM CDT
Astronomical Twilight 4:19 AM CDT 9:44 PM CDT
Moon 7:47 PM CDT (8/10) 5:56 AM CDT (8/10)
Length of Visible Light 14h 55m
Length of Day
13h 56m
Full, 100% of the Moon is Illuminated
Aug 10
Full
Aug 10
Full
Aug 17
Last Quarter
Aug 25
New
Sep 2
First Quarter

Hourly Weather History & Observations

Time (CDT) Temp. Heat Index Dew Point Humidity Pressure Visibility Wind Dir Wind Speed Gust Speed Precip Events Conditions
12:15 AM 69.3 °F - 67.1 °F 93% 30.00 in 3.0 mi Calm Calm - 0.01 in Rain Heavy Rain
12:35 AM 69.1 °F - 67.1 °F 93% 29.99 in 3.0 mi North 4.6 mph - 0.03 in   Drizzle
12:55 AM 68.9 °F - 66.7 °F 93% 29.99 in 7.0 mi North 6.9 mph - 0.03 in   Light Drizzle
1:15 AM 68.4 °F - 66.0 °F 92% 29.98 in 10.0 mi North 9.2 mph - N/A   Light Drizzle
1:35 AM 68.4 °F - 65.5 °F 90% 29.97 in 10.0 mi NNE 9.2 mph - N/A   Overcast
1:55 AM 68.2 °F - 64.4 °F 88% 29.97 in 10.0 mi NNE 8.1 mph - N/A   Overcast
2:15 AM 68.2 °F - 64.0 °F 87% 29.96 in 10.0 mi NNE 5.8 mph - N/A   Overcast
2:35 AM 68.0 °F - 64.0 °F 87% 29.97 in 10.0 mi North 4.6 mph - N/A   Overcast
2:55 AM 68.0 °F - 63.9 °F 87% 29.97 in 10.0 mi NNE 4.6 mph - N/A   Overcast
3:15 AM 68.0 °F - 63.9 °F 87% 29.97 in 10.0 mi North 4.6 mph - N/A   Overcast
3:35 AM 68.4 °F - 63.7 °F 85% 29.97 in 10.0 mi Calm Calm - N/A   Overcast
3:55 AM 68.2 °F - 63.7 °F 85% 29.96 in 10.0 mi NNE 5.8 mph - N/A   Overcast
4:15 AM 68.4 °F - 63.5 °F 84% 29.97 in 10.0 mi North 3.5 mph - N/A   Overcast
4:35 AM 68.2 °F - 63.5 °F 85% 29.97 in 10.0 mi North 5.8 mph - N/A   Overcast
4:55 AM 68.0 °F - 63.5 °F 85% 29.97 in 10.0 mi North 3.5 mph - N/A   Overcast
5:15 AM 68.0 °F - 63.7 °F 86% 29.97 in 10.0 mi Calm Calm - N/A   Overcast
5:35 AM 67.6 °F - 63.9 °F 88% 29.98 in 10.0 mi Calm Calm - N/A   Overcast
5:55 AM 67.6 °F - 63.9 °F 88% 29.98 in 10.0 mi North 3.5 mph - N/A   Overcast
6:15 AM 68.0 °F - 63.9 °F 87% 29.98 in 10.0 mi NNE 3.5 mph - N/A   Overcast
6:35 AM 68.0 °F - 63.7 °F 86% 29.98 in 10.0 mi NNE 3.5 mph - N/A   Overcast
6:55 AM 68.0 °F - 63.9 °F 87% 29.99 in 10.0 mi Calm Calm - N/A   Overcast
7:15 AM 68.7 °F - 63.7 °F 84% 29.99 in 10.0 mi Calm Calm - N/A   Overcast
7:35 AM 69.1 °F - 64.2 °F 84% 29.99 in 10.0 mi Calm Calm - N/A   Overcast
7:55 AM 69.8 °F - 64.4 °F 83% 30.00 in 10.0 mi Calm Calm - N/A   Overcast
8:15 AM 70.0 °F - 64.0 °F 81% 30.00 in 10.0 mi Calm Calm - N/A   Overcast
8:35 AM 70.7 °F - 64.4 °F 80% 30.00 in 10.0 mi Calm Calm - N/A   Mostly Cloudy
8:55 AM 72.3 °F - 65.3 °F 78% 29.99 in 10.0 mi NNE 4.6 mph - N/A   Mostly Cloudy
9:15 AM 73.4 °F - 65.5 °F 76% 29.99 in 10.0 mi NE 4.6 mph - N/A   Mostly Cloudy
9:35 AM 73.9 °F - 65.3 °F 74% 29.99 in 10.0 mi NE 4.6 mph - N/A   Mostly Cloudy
9:55 AM 74.5 °F - 65.1 °F 72% 29.99 in 10.0 mi NE 3.5 mph - N/A   Overcast
10:15 AM 74.7 °F - 66.0 °F 74% 29.99 in 10.0 mi North 3.5 mph - N/A   Overcast
10:35 AM 74.7 °F - 66.7 °F 76% 29.99 in 10.0 mi NE 4.6 mph - N/A   Overcast
10:55 AM 76.3 °F - 67.1 °F 73% 29.99 in 10.0 mi North 3.5 mph - N/A   Mostly Cloudy
11:15 AM 76.5 °F - 67.5 °F 74% 29.99 in 10.0 mi North 4.6 mph - N/A   Mostly Cloudy
11:35 AM 77.0 °F - 67.8 °F 73% 29.99 in 10.0 mi North 3.5 mph - N/A   Scattered Clouds
11:55 AM 78.3 °F - 68.4 °F 71% 29.98 in 10.0 mi North 5.8 mph - N/A   Clear
12:15 PM 79.3 °F - 69.3 °F 71% 29.98 in 10.0 mi North 4.6 mph - N/A   Clear
12:35 PM 79.7 °F - 69.3 °F 70% 29.98 in 10.0 mi Calm Calm - N/A   Scattered Clouds
12:55 PM 81.0 °F 84.6 °F 70.2 °F 70% 29.97 in 10.0 mi NE 5.8 mph - N/A   Scattered Clouds
1:15 PM 81.5 °F 85.1 °F 70.2 °F 68% 29.97 in 10.0 mi North 5.8 mph - N/A   Clear
1:35 PM 81.0 °F 84.6 °F 70.5 °F 70% 29.97 in 10.0 mi North 4.6 mph - N/A   Mostly Cloudy
1:55 PM 82.2 °F 86.2 °F 70.3 °F 67% 29.97 in 10.0 mi Calm Calm - N/A   Mostly Cloudy
2:15 PM 82.4 °F 86.7 °F 70.9 °F 68% 29.97 in 10.0 mi NNE 3.5 mph - N/A   Scattered Clouds
2:35 PM 82.6 °F 86.8 °F 70.5 °F 67% 29.96 in 10.0 mi North 4.6 mph - N/A   Scattered Clouds
2:55 PM 82.2 °F 86.6 °F 71.1 °F 69% 29.95 in 10.0 mi North 6.9 mph - N/A   Mostly Cloudy
3:15 PM 82.0 °F 86.7 °F 72.0 °F 71% 29.95 in 10.0 mi NE 6.9 mph - N/A   Overcast
3:35 PM 80.6 °F 84.2 °F 70.7 °F 72% 29.94 in 10.0 mi ENE 8.1 mph - N/A   Overcast
3:55 PM 81.7 °F 85.6 °F 70.7 °F 69% 29.94 in 10.0 mi ENE 9.2 mph - N/A   Scattered Clouds
4:15 PM 81.7 °F 85.8 °F 71.2 °F 70% 29.94 in 10.0 mi NE 10.4 mph - N/A   Clear
4:35 PM 80.8 °F 84.2 °F 70.0 °F 70% 29.94 in 10.0 mi ENE 8.1 mph - N/A   Scattered Clouds
4:55 PM 80.6 °F 84.2 °F 70.9 °F 72% 29.93 in 10.0 mi ENE 8.1 mph - N/A   Scattered Clouds
5:15 PM 80.1 °F 83.7 °F 71.6 °F 75% 29.92 in 10.0 mi NE 5.8 mph - N/A   Clear
5:35 PM 80.8 °F 84.7 °F 71.6 °F 73% 29.92 in 10.0 mi NE 8.1 mph - N/A   Clear
5:55 PM 80.1 °F 83.4 °F 70.9 °F 73% 29.93 in 10.0 mi NE 4.6 mph - N/A   Scattered Clouds
6:35 PM 77.5 °F - 70.2 °F 78% 29.92 in 10.0 mi NE 4.6 mph - N/A   Scattered Clouds
6:55 PM 77.5 °F - 70.2 °F 78% 29.92 in 10.0 mi NE 3.5 mph - N/A   Clear
7:15 PM 77.0 °F - 70.7 °F 81% 29.92 in 10.0 mi NNE 3.5 mph - N/A   Clear
7:35 PM 76.1 °F - 70.7 °F 83% 29.92 in 10.0 mi Calm Calm - N/A   Clear
7:55 PM 75.4 °F - 70.7 °F 85% 29.92 in 7.0 mi Calm Calm - N/A   Clear
8:15 PM 75.0 °F - 70.7 °F 86% 29.92 in 10.0 mi Calm Calm - N/A   Clear
8:35 PM 74.5 °F - 70.5 °F 87% 29.92 in 10.0 mi Calm Calm - N/A   Scattered Clouds
8:55 PM 74.3 °F - 70.7 °F 88% 29.92 in 7.0 mi Calm Calm - N/A   Scattered Clouds
9:15 PM 73.8 °F - 70.3 °F 89% 29.93 in 7.0 mi Calm Calm - N/A   Clear
9:35 PM 73.4 °F - 70.2 °F 90% 29.93 in 7.0 mi North 3.5 mph - N/A   Clear
9:55 PM 73.6 °F - 70.5 °F 90% 29.92 in 7.0 mi North 3.5 mph - N/A   Clear
10:15 PM 73.0 °F - 70.2 °F 91% 29.93 in 7.0 mi North 3.5 mph - N/A   Clear
10:35 PM 73.4 °F - 69.8 °F 88% 29.93 in 7.0 mi North 3.5 mph - N/A   Clear
10:55 PM 73.8 °F - 70.2 °F 88% 29.94 in 7.0 mi Calm Calm - N/A   Scattered Clouds
11:15 PM 73.8 °F - 70.2 °F 88% 29.94 in 7.0 mi Calm Calm - N/A   Scattered Clouds
11:35 PM 73.4 °F - 69.8 °F 88% 29.93 in 7.0 mi Calm Calm - N/A   Clear
11:55 PM 73.2 °F - 69.8 °F 89% 29.93 in 7.0 mi North 3.5 mph - N/A   Clear